Regional Weather Roundup
Issued by NWS

Home | Current Version | Previous Version | Text Only | Print | Product List | Glossary On
Versions: 1 2 3 4 5 6 7 8 9 10 11 12 13 14 15 16 17 18 19 20 21 22 23 24 25 26 27 28 29 30 31 32 33 34 35 36 37 38 39 40 41 42 43 44 45 46 47 48 49 50
000
ASUS43 KDMX 311307
RWRIA

WEATHER ROUNDUP FOR IOWA
NATIONAL WEATHER SERVICE DES MOINES IA
700 AM CST SAT JAN 31 2015

NOTE: "FAIR" INDICATES FEW OR NO CLOUDS BELOW 12,000 FEET WITH NO
SIGNIFICANT WEATHER AND/OR OBSTRUCTIONS TO VISIBILITY.

* - THESE STATIONS ARE NOT NWS STATIONS...THUS NOT UNDER NWS
QUALITY CONTROL.  THEY ALSO DO NOT REPORT WEATHER SUCH
AS PRECIPITATION OR FOG.

IAZ001>003-012>014-020>022-031>034-043>046-311400-
   NORTHWEST IOWA

CITY           SKY/WX    TMP DP  RH WIND       PRES   REMARKS
CARROLL *      CLOUDY    36  32  87 SW14      30.14S WCI  27
CHEROKEE *     CLOUDY    28  28 100 CALM      30.12S
DENISON *      CLOUDY    34  32  93 S9        30.12F WCI  26
LE MARS *      CLEAR     28  27  93 S3        30.10F
ORANGE CITY *  PTCLDY    30  27  86 CALM      30.09F
SHELDON *      PTCLDY    25  27 100 NE10      30.10S WCI  15
SIOUX CITY     CLOUDY    33  30  88 SE7       30.11F WCI  27
SPENCER        MOCLDY    26  22  84 N3        30.13S
STORM LAKE *   CLEAR     32  30  93 SW8       30.12S WCI  25
$$

IAZ055>058-069>071-079>083-090>094-311400-
   SOUTHWEST IOWA

CITY           SKY/WX    TMP DP  RH WIND       PRES   REMARKS
ATLANTIC *     CLOUDY    34  30  86 S7        30.18F WCI  28
AUDUBON *      CLOUDY    36  30  80 S8        30.17F WCI  29
CLARINDA *     MIX PCPN  36  36 100 S7        30.23S WCI  30
COUNCIL BLFS * CLOUDY    37  36  93 S10G17    30.15F WCI  30
CRESTON *      CLOUDY    34  30  86 SW7       30.20S WCI  28
HARLAN  *      CLOUDY    34  34 100 S6        30.20S WCI  29
LAMONI         CLOUDY    30  23  75 S9        30.22S WCI  22
RED OAK *      CLOUDY    36  34  93 S8        30.20S WCI  29
SHENANDOAH *   MIX PCPN  37  36  93 SW12      30.21S WCI  30
$$

IAZ047>049-059>061-072>074-084-311400-
   CENTRAL IOWA

CITY           SKY/WX    TMP DP  RH WIND       PRES   REMARKS
AMES           CLOUDY    30  25  81 SW8       30.17S WCI  22
ANKENY *       PTCLDY    34  28  80 SW7       30.19F WCI  28
CHARITON *     CLOUDY    32  25  74 SW7       30.22S WCI  26
DES MOINES     CLOUDY    36  28  73 SW10      30.20S WCI  28
GRINNELL*      CLOUDY    30  25  80 SW9       30.20S WCI  22
KNOXVILLE *    MOCLDY    32  25  74 SW9       30.20S WCI  24
MARSHALLTOWN   CLOUDY    29  23  78 SW8       30.17R WCI  21
PELLA *        CLOUDY    34  27  75 SW8       30.22S WCI  27
PERRY *          N/A     32  32 100 S6        30.17F WCI  26
$$

IAZ004>006-015-016-023>025-035-036-311400-
   NORTH CENTRAL IOWA

CITY           SKY/WX    TMP DP  RH WIND       PRES   REMARKS
ALGONA *       CLEAR     25  23  93 CALM      30.14F
CLARION *      CLEAR     25  25 100 S6        30.14F WCI  18
ESTHERVILLE    MOCLDY    24  22  91 NW7       30.12S WCI  16
FORT DODGE *   CLOUDY    30  27  86 S5        30.14S WCI  25
MASON CITY     MOCLDY    26  22  84 W9        30.15R WCI  17
FOREST CITY *  CLEAR     23  21  93 CALM      30.13S
IOWA FALLS *     N/A     28  25  86 SW3       30.17R
$$

IAZ007>011-017>019-026>030-037>042-050>054-066-311400-
   NORTHEAST IOWA

CITY           SKY/WX    TMP DP  RH WIND       PRES   REMARKS
CEDAR RAPIDS   CLOUDY    30  24  78 SW12      30.18S WCI  20
CHARLES CITY * CLEAR     19  18  93 S3        30.16R
CLINTON *      MOCLDY    21  18  86 SW8       30.25R WCI  12
DECORAH *      CLEAR     23  18  80 SW5       30.14S WCI  17
DUBUQUE        PTCLDY    20  16  84 S8        30.17S WCI  10
MONTICELLO *   CLEAR     25  21  86 SW6       30.20R WCI  18
OELWEIN *      CLEAR     21  18  86 S6        30.17S WCI  14
WATERLOO       CLOUDY    25  21  85 SW3       30.17R
$$

IAZ064-065-067-068-078-311400-
   EAST CENTRAL IOWA

CITY           SKY/WX    TMP DP  RH WIND       PRES   REMARKS
DAVENPORT      MOCLDY    28  19  69 SW12      30.23R WCI  18
IOWA CITY      CLOUDY    30  23  75 SW6       30.23S WCI  24
MT. PLEASANT * CLOUDY    28  21  74 SW9       30.25S WCI  20
MUSCATINE *    CLOUDY    32  23  69 SW10      30.25S WCI  24
QUAD CITIES    MOCLDY    29  20  69 SW7       30.23R WCI  22
$$

IAZ062-063-075>077-085>089-095>099-311400-
   SOUTHEAST IOWA

CITY           SKY/WX    TMP DP  RH WIND       PRES   REMARKS
BURLINGTON     CLOUDY    28  22  78 SW8       30.26R WCI  20
FAIRFIELD *    PTCLDY    28  21  74 SW9       30.24S WCI  20
FORT MADISON * CLEAR     28  21  74 SW10      30.27S WCI  19
KEOKUK *       MOCLDY    28  23  80 SW9       30.27R WCI  20
OSKALOOSA *    MOCLDY    30  25  80 SW8       30.22S WCI  23
CENTERVILLE *  MOCLDY    32  25  74 SW7       30.25S WCI  26
OTTUMWA        CLOUDY    31  24  75 SW9       30.22S WCI  23
WASHINGTON *   PTCLDY    30  25  80 SW8       30.23S WCI  23
$$

ABBREVIATIONS USED IN REMARKS
   TC - TEMPERATURES IN CELSIUS
  WCI - WIND CHILL INDEX
   HX - HEAT INDEX
  VSB - VISIBILITY
$$




USA.gov is the U.S. government's official web portal to all federal, state and local government web resources and services.